GW5833 Weather Reports


time (UTC)temp
C
wind
direction
speed
KPH
gust
KPH
rain 1hr
cm
rain 24hr
cm
rain mn
cm
humidity
%
barometer
mb
20260510230955 23 293 11.3 27.4 0.00 0.00 0.00 27 1021.8
20260510230450 23 336 27.4 40.2 0.00 0.00 0.00 27 1021.6
20260510225947 23 318 11.3 32.2 0.00 0.00 0.00 28 1021.7
20260510225444 23 5 24.1 25.7 0.00 0.00 0.00 27 1021.7
20260510224945 23 294 6.4 43.5 0.00 0.00 0.00 27 1021.6
20260510224441 23 308 22.5 33.8 0.00 0.00 0.00 27 1021.6
20260510223938 23 300 19.3 32.2 0.00 0.00 0.00 26 1021.6
20260510223435 24 299 11.3 25.7 0.00 0.00 0.00 26 1021.6
20260510222932 24 343 11.3 33.8 0.00 0.00 0.00 25 1021.8
20260510222430 24 6 12.9 27.4 0.00 0.00 0.00 26 1021.7
20260510221926 24 61 4.8 22.5 0.00 0.00 0.00 26 1021.3
20260510221422 24 312 9.7 37.0 0.00 0.00 0.00 27 1021.7
20260510220919 24 249 4.8 20.9 0.00 0.00 0.00 26 1021.8
20260510220415 23 299 24.1 32.2 0.00 0.00 0.00 27 1021.9
20260510215911 25 310 11.3 19.3 0.00 0.00 0.00 26 1021.7
20260510215409 24 315 14.5 30.6 0.00 0.00 0.00 26 1021.9
20260510214906 25 319 22.5 30.6 0.00 0.00 0.00 25 1021.9
20260510214403 24 311 11.3 32.2 0.00 0.00 0.00 26 1022.1
20260510213900 25 333 12.9 27.4 0.00 0.00 0.00 25 1021.9
20260510213356 25 15 17.7 32.2 0.00 0.00 0.00 24 1022.1
20260510212853 25 326 6.4 33.8 0.00 0.00 0.00 25 1021.8
20260510212350 25 106 17.7 19.3 0.00 0.00 0.00 25 1021.6
20260510211847 24 34 11.3 27.4 0.00 0.00 0.00 25 1022.2
20260510211343 24 321 25.7 41.8 0.00 0.00 0.00 25 1021.9
20260510210839 25 308 14.5 27.4 0.00 0.00 0.00 25 1021.9
20260510210334 25 323 27.4 30.6 0.00 0.00 0.00 24 1021.9
20260510205833 26 319 8.0 24.1 0.00 0.00 0.00 22 1021.8
20260510205329 25 311 20.9 22.5 0.00 0.00 0.00 22 1022.3
20260510204825 26 313 9.7 24.1 0.00 0.00 0.00 21 1022.2
20260510204322 27 99 9.7 14.5 0.00 0.00 0.00 11 1021.9
20260510203818 27 150 4.8 9.7 0.00 0.00 0.00 10 1021.9
20260510203316 27 40 4.8 6.4 0.00 0.00 0.00 10 1021.8
20260510202816 27 255 3.2 8.0 0.00 0.00 0.00 10 1022.1
20260510202312 27 105 3.2 6.4 0.00 0.00 0.00 10 1022.1
20260510201809 27 104 6.4 8.0 0.00 0.00 0.00 10 1021.9
20260510201306 27 266 3.2 8.0 0.00 0.00 0.00 10 1022.1
20260510200802 27 221 8.0 11.3 0.00 0.00 0.00 11 1022.1
20260510200300 27 245 4.8 14.5 0.00 0.00 0.00 11 1022.1
20260510195756 27 111 4.8 9.7 0.00 0.00 0.00 11 1021.9
20260510195253 27 238 8.0 8.0 0.00 0.00 0.00 11 1022.2
20260510194752 26 237 3.2 9.7 0.00 0.00 0.00 12 1022.1
20260510194250 27 249 0.0 4.8 0.00 0.00 0.00 11 1022.1
20260510193745 26 254 3.2 9.7 0.00 0.00 0.00 12 1022.1
20260510193240 26 39 8.0 16.1 0.00 0.00 0.00 12 1022.2
20260510192736 26 149 3.2 12.9 0.00 0.00 0.00 12 1022.2
20260510192231 25 98 9.7 14.5 0.00 0.00 0.00 13 1022.3
20260510191728 26 120 22.5 25.7 0.00 0.00 0.00 12 1022.3
20260510191224 26 69 3.2 6.4 0.00 0.00 0.00 11 1022.4
20260510190722 26 127 6.4 12.9 0.00 0.00 0.00 11 1022.2
20260510190218 26 189 1.6 12.9 0.00 0.00 0.00 12 1022.2
20260510185715 25 262 3.2 9.7 0.00 0.00 0.00 13 1022.4
20260510185214 26 129 9.7 12.9 0.00 0.00 0.00 12 1022.4
20260510184710 26 79 6.4 16.1 0.00 0.00 0.00 13 1022.3
20260510184207 26 198 3.2 11.3 0.00 0.00 0.00 13 1022.5
20260510183701 26 242 3.2 6.4 0.00 0.00 0.00 14 1022.3
20260510183156 26 231 4.8 9.7 0.00 0.00 0.00 14 1022.4
20260510182653 25 83 1.6 9.7 0.00 0.00 0.00 14 1022.6
20260510182149 26 171 8.0 14.5 0.00 0.00 0.00 14 1022.4
20260510181647 25 252 1.6 9.7 0.00 0.00 0.00 16 1022.4
20260510181143 26 264 8.0 11.3 0.00 0.00 0.00 15 1022.5
20260510180639 25 212 3.2 9.7 0.00 0.00 0.00 17 1022.8
20260510180137 25 225 4.8 9.7 0.00 0.00 0.00 16 1022.6
20260510175632 25 190 1.6 6.4 0.00 0.00 0.00 16 1022.8
20260510175128 25 187 3.2 16.1 0.00 0.00 0.00 17 1022.5
20260510174626 26 172 4.8 6.4 0.00 0.00 0.00 17 1022.8
20260510174123 25 78 0.0 4.8 0.00 0.00 0.00 17 1022.4
20260510173619 25 205 6.4 8.0 0.00 0.00 0.00 17 1022.5
20260510173115 25 210 6.4 12.9 0.00 0.00 0.00 18 1022.8
20260510172611 25 231 3.2 8.0 0.00 0.00 0.00 18 1022.5
20260510172108 24 168 1.6 4.8 0.00 0.00 0.00 18 1022.8
20260510171604 24 113 6.4 12.9 0.00 0.00 0.00 18 1022.9
20260510171102 23 315 0.0 9.7 0.00 0.00 0.00 20 1022.8
20260510170558 24 103 3.2 12.9 0.00 0.00 0.00 18 1022.8
20260510170055 24 216 4.8 6.4 0.00 0.00 0.00 18 1022.5
20260510165550 24 98 0.0 6.4 0.00 0.00 0.00 19 1022.2
20260510165046 23 239 3.2 9.7 0.00 0.00 0.00 19 1022.5
20260510164544 23 139 1.6 9.7 0.00 0.00 0.00 19 1022.6
20260510164040 24 183 1.6 6.4 0.00 0.00 0.00 18 1022.3
20260510163536 25 216 4.8 6.4 0.00 0.00 0.00 18 1022.4
20260510163032 23 99 1.6 4.8 0.00 0.00 0.00 18 1022.5
20260510162527 23 197 3.2 6.4 0.00 0.00 0.00 19 1022.4
20260510162024 23 211 4.8 6.4 0.00 0.00 0.00 19 1022.4
20260510161520 23 235 6.4 9.7 0.00 0.00 0.00 19 1022.3
20260510161017 23 138 3.2 9.7 0.00 0.00 0.00 19 1022.5
20260510160514 23 206 4.8 12.9 0.00 0.00 0.00 19 1022.4
20260510160014 23 212 4.8 11.3 0.00 0.00 0.00 20 1022.4
20260510155510 23 110 3.2 11.3 0.00 0.00 0.00 19 1022.4
20260510155007 22 150 1.6 4.8 0.00 0.00 0.00 20 1022.1
20260510154503 23 172 3.2 8.0 0.00 0.00 0.00 20 1022.2
20260510154002 23 160 6.4 11.3 0.00 0.00 0.00 20 1022.1
20260510153458 22 136 3.2 6.4 0.00 0.00 0.00 20 1022.1
20260510152955 22 229 3.2 8.0 0.00 0.00 0.00 20 1021.8
20260510152452 22 54 0.0 6.4 0.00 0.00 0.00 21 1021.9
20260510151948 23 248 3.2 9.7 0.00 0.00 0.00 20 1021.8
20260510151446 22 185 3.2 6.4 0.00 0.00 0.00 20 1021.7
20260510150942 22 123 4.8 6.4 0.00 0.00 0.00 20 1022.1
20260510150438 22 178 1.6 6.4 0.00 0.00 0.00 21 1022.1
20260510145934 22 134 3.2 4.8 0.00 0.00 0.00 21 1021.7
20260510145431 22 216 4.8 4.8 0.00 0.00 0.00 21 1021.9
20260510144927 22 212 1.6 4.8 0.00 0.00 0.00 22 1021.8
20260510144424 22 143 3.2 4.8 0.00 0.00 0.00 22 1021.7
20260510143919 22 81 3.2 4.8 0.00 0.00 0.00 22 1021.7
20260510143415 22 164 3.2 4.8 0.00 0.00 0.00 22 1021.8
20260510142912 21 79 0.0 4.8 0.00 0.00 0.00 23 1021.8
20260510142409 21 151 0.0 4.8 0.00 0.00 0.00 22 1021.5
20260510141905 21 308 0.0 3.2 0.00 0.00 0.00 23 1021.6
20260510141403 21 70 3.2 6.4 0.00 0.00 0.00 22 1021.3
20260510140859 21 52 1.6 4.8 0.00 0.00 0.00 23 1021.3
20260510140355 20 271 3.2 6.4 0.00 0.00 0.00 23 1021.8
20260510135849 20 324 4.8 8.0 0.00 0.00 0.00 23 1021.6
20260510135345 18 334 6.4 9.7 0.00 0.00 0.00 24 1021.3
20260510134843 18 343 4.8 6.4 0.00 0.00 0.00 25 1021.5
20260510134340 18 335 3.2 4.8 0.00 0.00 0.00 25 1021.3
20260510133836 18 351 1.6 3.2 0.00 0.00 0.00 25 1021.2
20260510133332 18 326 0.0 3.2 0.00 0.00 0.00 25 1021.2
20260510132827 17 327 3.2 4.8 0.00 0.00 0.00 25 1021.3
20260510132325 17 31 0.0 3.2 0.00 0.00 0.00 27 1021.1
20260510131822 17 73 0.0 0.0 0.00 0.00 0.00 28 1021.2
20260510131320 17 196 1.6 3.2 0.00 0.00 0.00 28 1020.7
20260510130816 17 317 3.2 3.2 0.00 0.00 0.00 29 1021.0
20260510130313 17 110 0.0 3.2 0.00 0.00 0.00 27 1020.9
20260510125809 17 22 0.0 4.8 0.00 0.00 0.00 27 1021.0
20260510125307 16 178 1.6 3.2 0.00 0.00 0.00 28 1020.7
20260510124802 16 231 1.6 3.2 0.00 0.00 0.00 27 1020.7
20260510124300 16 108 0.0 1.6 0.00 0.00 0.00 27 1020.6
20260510123755 16 217 0.0 1.6 0.00 0.00 0.00 27 1020.7
20260510123251 16 133 0.0 3.2 0.00 0.00 0.00 27 1020.5
20260510122747 16 66 0.0 1.6 0.00 0.00 0.00 26 1020.4
20260510122244 16 37 0.0 1.6 0.00 0.00 0.00 27 1020.1
20260510121740 17 121 4.8 4.8 0.00 0.00 0.00 26 1020.4
20260510121238 17 153 0.0 3.2 0.00 0.00 0.00 25 1020.3
20260510120736 17 266 1.6 3.2 0.00 0.00 0.00 25 1020.1
20260510120232 17 308 1.6 4.8 0.00 0.00 0.00 25 1020.0
20260510115727 17 333 0.0 3.2 0.00 0.00 0.00 25 1020.3
20260510115226 17 336 0.0 1.6 0.00 0.00 0.00 24 1020.0
20260510114720 18 228 0.0 1.6 0.00 0.00 0.00 24 1020.1
20260510114218 18 249 0.0 3.2 0.00 0.00 0.00 23 1020.3
20260510113713 19 99 1.6 6.4 0.00 0.00 0.00 23 1020.0
20260510113210 19 49 4.8 6.4 0.00 0.00 0.00 22 1019.8
20260510112706 19 51 4.8 6.4 0.00 0.00 0.00 23 1019.7
20260510112204 19 43 3.2 6.4 0.00 0.00 0.00 23 1019.8
20260510111659 19 330 4.8 14.5 0.00 0.00 0.00 23 1020.0
20260510111156 19 50 6.4 9.7 0.00 0.00 0.00 24 1020.4
20260510110650 19 35 4.8 6.4 0.00 0.00 0.00 24 1020.6
20260510110149 19 30 0.0 1.6 0.00 0.00 0.00 23 1020.7
20260510105639 19 242 1.6 3.2 0.00 0.00 0.00 24 1020.7
20260510105138 20 162 1.6 4.8 0.00 0.00 0.00 23 1021.1
20260510104636 19 56 8.0 16.1 0.00 0.00 0.00 23 1020.6
20260510104132 19 339 3.2 22.5 0.00 0.00 0.00 25 1020.6
20260510103629 18 328 12.9 41.8 0.00 0.00 0.00 26 1021.1
20260510103125 19 81 6.4 8.0 0.00 0.00 0.00 22 1020.4
20260510102620 19 233 0.0 3.2 0.00 0.00 0.00 20 1019.8
20260510102117 20 241 1.6 4.8 0.00 0.00 0.00 20 1019.8
20260510101615 20 268 3.2 6.4 0.00 0.00 0.00 20 1019.7
20260510101113 19 307 8.0 12.9 0.00 0.00 0.00 20 1019.4
20260510100608 18 304 8.0 11.3 0.00 0.00 0.00 21 1019.7
20260510100106 18 310 4.8 9.7 0.00 0.00 0.00 21 1019.9
20260510095601 18 267 4.8 6.4 0.00 0.00 0.00 21 1019.9
20260510095056 18 288 4.8 6.4 0.00 0.00 0.00 22 1019.7
20260510094555 18 283 3.2 6.4 0.00 0.00 0.00 22 1019.8
20260510094051 18 342 0.0 1.6 0.00 0.00 0.00 22 1019.7
20260510093548 19 93 3.2 3.2 0.00 0.00 0.00 21 1020.0
20260510093044 20 88 3.2 14.5 0.00 0.00 0.00 20 1019.9
20260510092541 20 215 3.2 8.0 0.00 0.00 0.00 19 1019.5
20260510092041 20 183 3.2 6.4 0.00 0.00 0.00 19 1019.4
20260510091538 20 206 3.2 6.4 0.00 0.00 0.00 19 1019.7
20260510091034 20 252 8.0 9.7 0.00 0.00 0.00 19 1019.4
20260510090531 20 235 3.2 8.0 0.00 0.00 0.00 19 1019.3
20260510090027 20 225 6.4 16.1 0.00 0.00 0.00 19 1019.2
20260510085526 20 251 8.0 16.1 0.00 0.00 0.00 19 1019.1
20260510085022 20 260 6.4 9.7 0.00 0.00 0.00 19 1018.9
20260510084519 19 274 1.6 9.7 0.00 0.00 0.00 20 1018.6
20260510084016 19 224 3.2 4.8 0.00 0.00 0.00 20 1018.8
20260510083513 19 32 0.0 3.2 0.00 0.00 0.00 20 1018.9
20260510083009 20 139 0.0 4.8 0.00 0.00 0.00 20 1018.8
20260510082506 20 251 3.2 4.8 0.00 0.00 0.00 19 1018.6
20260510082001 20 120 3.2 8.0 0.00 0.00 0.00 19 1018.6
20260510081456 20 250 4.8 6.4 0.00 0.00 0.00 19 1018.5
20260510080953 20 265 3.2 8.0 0.00 0.00 0.00 19 1018.5
20260510080451 20 220 4.8 8.0 0.00 0.00 0.00 19 1018.1
20260510075949 19 256 9.7 9.7 0.00 0.00 0.00 19 1018.5
20260510075446 19 228 8.0 14.5 0.00 0.00 0.00 19 1018.3
20260510074943 18 235 4.8 16.1 0.00 0.00 0.00 20 1018.3
20260510074440 18 204 3.2 6.4 0.00 0.00 0.00 20 1018.2
20260510073936 19 311 3.2 4.8 0.00 0.00 0.00 20 1018.3
20260510073432 20 92 3.2 4.8 0.00 0.00 0.00 19 1018.2
20260510072928 21 224 0.0 8.0 0.00 0.00 0.00 18 1018.1
20260510072425 20 234 1.6 4.8 0.00 0.00 0.00 18 1018.2
20260510071920 20 268 3.2 6.4 0.00 0.00 0.00 18 1018.0
20260510071417 20 228 1.6 3.2 0.00 0.00 0.00 18 1018.0
20260510070916 21 261 3.2 8.0 0.00 0.00 0.00 17 1018.0
20260510070413 21 253 4.8 6.4 0.00 0.00 0.00 17 1018.0
20260510065908 21 257 3.2 8.0 0.00 0.00 0.00 17 1018.0
20260510065404 21 244 3.2 8.0 0.00 0.00 0.00 17 1017.9
20260510064901 21 250 3.2 4.8 0.00 0.00 0.00 17 1017.9
20260510064359 21 245 8.0 12.9 0.00 0.00 0.00 17 1017.9
20260510063855 21 255 9.7 16.1 0.00 0.00 0.00 17 1017.6
20260510063352 21 225 4.8 12.9 0.00 0.00 0.00 17 1017.4
20260510062848 21 264 6.4 11.3 0.00 0.00 0.00 17 1017.2
20260510062344 21 269 6.4 11.3 0.00 0.00 0.00 17 1017.3
20260510061839 21 246 3.2 9.7 0.00 0.00 0.00 17 1017.3
20260510061336 21 271 3.2 8.0 0.00 0.00 0.00 17 1017.2
20260510060832 21 253 4.8 6.4 0.00 0.00 0.00 16 1017.2
20260510060330 21 255 9.7 11.3 0.00 0.00 0.00 16 1017.2
20260510055827 21 213 8.0 9.7 0.00 0.00 0.00 16 1017.5
20260510055325 21 228 4.8 9.7 0.00 0.00 0.00 16 1017.5
20260510054824 21 237 3.2 8.0 0.00 0.00 0.00 16 1017.2
20260510054321 21 228 6.4 6.4 0.00 0.00 0.00 16 1017.4
20260510053816 21 219 3.2 4.8 0.00 0.00 0.00 16 1017.2
20260510053312 21 199 3.2 11.3 0.00 0.00 0.00 15 1017.2
20260510052808 22 253 6.4 6.4 0.00 0.00 0.00 15 1017.0
20260510052306 22 264 3.2 11.3 0.00 0.00 0.00 15 1016.9
20260510051800 22 254 3.2 8.0 0.00 0.00 0.00 14 1016.8
20260510051257 22 269 6.4 12.9 0.00 0.00 0.00 14 1016.9
20260510050754 22 241 4.8 14.5 0.00 0.00 0.00 14 1016.7
20260510050250 21 249 6.4 6.4 0.00 0.00 0.00 14 1016.9
20260510045747 22 272 0.0 6.4 0.00 0.00 0.00 14 1016.8
20260510045243 22 259 4.8 9.7 0.00 0.00 0.00 14 1016.7
20260510044740 22 246 9.7 14.5 0.00 0.00 0.00 14 1016.7
20260510044233 22 236 11.3 14.5 0.00 0.00 0.00 14 1016.8
20260510043728 22 252 9.7 12.9 0.00 0.00 0.00 13 1016.8
20260510043226 22 260 9.7 9.7 0.00 0.00 0.00 13 1016.9
20260510042722 22 236 4.8 9.7 0.00 0.00 0.00 13 1016.4
20260510042218 22 243 9.7 12.9 0.00 0.00 0.00 13 1016.7
20260510041715 23 234 6.4 17.7 0.00 0.00 0.00 13 1016.9
20260510041212 23 244 4.8 17.7 0.00 0.00 0.00 13 1016.7
20260510040708 22 233 4.8 11.3 0.00 0.00 0.00 13 1016.8
20260510040206 22 245 8.0 14.5 0.00 0.00 0.00 13 1016.8
20260510035702 23 236 3.2 6.4 0.00 0.00 0.00 13 1016.8
20260510035158 23 235 3.2 9.7 0.00 0.00 0.00 13 1016.9
20260510034654 23 228 4.8 14.5 0.00 0.00 0.00 13 1017.2
20260510034151 23 203 9.7 14.5 0.00 0.00 0.00 14 1016.6
20260510033647 23 202 6.4 8.0 0.00 0.00 0.00 14 1016.3
20260510033145 24 222 4.8 8.0 0.00 0.00 0.00 14 1016.4
20260510032641 24 151 3.2 6.4 0.00 0.00 0.00 13 1016.2
20260510032137 24 247 3.2 11.3 0.00 0.00 0.00 13 1016.2
20260510031631 24 247 3.2 17.7 0.00 0.00 0.00 14 1016.2
20260510031129 24 214 6.4 9.7 0.00 0.00 0.00 14 1016.1
20260510030622 24 254 6.4 11.3 0.00 0.00 0.00 14 1016.0
20260510030121 25 336 3.2 8.0 0.00 0.00 0.00 14 1015.7
20260510025617 25 318 4.8 24.1 0.00 0.00 0.00 14 1015.7
20260510025115 25 326 20.9 30.6 0.00 0.00 0.00 14 1016.3
20260510024611 25 262 4.8 8.0 0.00 0.00 0.00 14 1015.7
20260510024108 25 216 4.8 11.3 0.00 0.00 0.00 14 1015.8
20260510023604 25 260 4.8 9.7 0.00 0.00 0.00 13 1015.5
20260510023102 25 251 11.3 14.5 0.00 0.00 0.00 13 1015.4
20260510022601 25 248 3.2 9.7 0.00 0.00 0.00 14 1015.2
20260510022056 25 223 6.4 14.5 0.00 0.00 0.00 14 1015.6
20260510021553 25 247 8.0 17.7 0.00 0.00 0.00 14 1015.2
20260510021050 25 258 4.8 9.7 0.00 0.00 0.00 14 1015.2
20260510020549 24 251 4.8 6.4 0.00 0.00 0.00 15 1015.6
20260510020045 24 213 0.0 4.8 0.00 0.00 0.00 15 1015.2
20260510015542 25 223 1.6 1.6 0.00 0.00 0.00 15 1014.9
20260510015038 25 117 0.0 4.8 0.00 0.00 0.00 14 1015.2
20260510014534 25 259 4.8 9.7 0.00 0.00 0.00 14 1015.5
20260510014032 25 214 3.2 8.0 0.00 0.00 0.00 14 1015.2
20260510013526 25 234 6.4 9.7 0.00 0.00 0.00 13 1015.4
20260510013022 25 202 9.7 11.3 0.00 0.00 0.00 13 1015.5
20260510012516 25 254 4.8 9.7 0.00 0.00 0.00 13 1015.0
20260510012012 25 199 9.7 20.9 0.00 0.00 0.00 13 1015.1
20260510011507 25 225 3.2 9.7 0.00 0.00 0.00 13 1015.1
20260510011003 26 217 3.2 8.0 0.00 0.00 0.00 13 1015.1
20260510010500 26 170 1.6 17.7 0.00 0.00 0.00 12 1015.5
20260510005957 26 290 4.8 12.9 0.00 0.00 0.00 12 1015.4
20260510005452 26 202 1.6 4.8 0.00 0.00 0.00 12 1015.0
20260510004950 26 95 6.4 6.4 0.00 0.00 0.00 12 1015.0
20260510004447 26 155 1.6 6.4 0.00 0.00 0.00 12 1014.9
20260510003945 26 241 1.6 6.4 0.00 0.00 0.00 12 1015.1
20260510003442 26 99 4.8 9.7 0.00 0.00 0.00 12 1015.1
20260510002942 27 115 4.8 20.9 0.00 0.00 0.00 12 1014.9
20260510002438 27 85 9.7 20.9 0.00 0.00 0.00 12 1015.2
20260510001935 27 208 3.2 24.1 0.00 0.00 0.00 12 1015.0
20260510001432 28 129 8.0 16.1 0.00 0.00 0.00 11 1015.0
20260510000930 27 145 9.7 17.7 0.00 0.00 0.00 12 1015.2
20260510000426 27 89 6.4 12.9 0.00 0.00 0.00 12 1015.2
20260509235923 27 190 8.0 27.4 0.00 0.00 0.00 12 1015.0
20260509235420 27 107 11.3 24.1 0.00 0.00 0.00 11 1015.2
20260509234916 27 169 3.2 19.3 0.00 0.00 0.00 12 1015.1
20260509234413 27 235 3.2 4.8 0.00 0.00 0.00 11 1014.9
20260509233911 27 110 1.6 8.0 0.00 0.00 0.00 11 1015.0
20260509233408 27 222 3.2 8.0 0.00 0.00 0.00 11 1015.0
20260509232904 27 214 9.7 11.3 0.00 0.00 0.00 10 1015.1
20260509232402 27 247 4.8 17.7 0.00 0.00 0.00 11 1015.1
20260509231858 27 218 8.0 17.7 0.00 0.00 0.00 11 1015.5
20260509231354 27 214 8.0 9.7 0.00 0.00 0.00 10 1015.1